GFSMW_sfc_dewp_021.txt.gz
Dewpoint
63 64 65 66 71 72 73 72 72 73 73 73 73 71 68 74 73 72 73 72 72 72 75 76 75 75 74 71 73 72 71 65 66 70 65 63 64 69 69 69 69 73 72
64 66 68 69 73 72 71 72 72 71 71 73 73 74 71 70 73 73 72 73 72 72 73 75 74 75 74 74 73 74 74 71 74 65 62 58 57 62 67 69 73 71 74
64 66 68 69 69 70 70 71 71 70 70 72 72 76 73 73 73 72 66 67 69 70 72 72 74 74 76 75 72 73 71 70 73 71 62 57 53 55 69 71 69 71 76
63 66 66 68 68 68 69 69 72 70 70 70 69 72 73 69 66 65 66 68 69 69 70 71 70 73 75 73 73 74 71 72 70 73 66 69 65 63 62 72 73 75 74
61 61 63 67 67 65 66 68 70 70 71 71 73 73 73 65 66 65 68 72 72 69 69 70 70 71 74 74 73 73 73 72 72 70 72 69 62 66 64 64 67 69 67
58 60 64 66 65 66 66 67 70 71 71 71 72 72 68 67 66 67 65 63 63 67 70 69 71 73 73 72 74 73 72 72 68 72 71 71 66 62 64 69 68 62 67
57 62 64 64 66 65 64 66 69 70 71 72 71 69 69 68 67 68 64 67 63 66 72 71 71 70 72 72 73 73 72 72 68 70 69 73 65 73 71 71 63 61 67
57 60 62 63 64 64 65 67 69 72 72 71 70 70 69 65 64 68 66 66 66 71 71 71 69 70 69 70 71 68 68 71 69 70 71 71 69 63 68 70 71 67 61
55 58 61 62 63 63 65 66 69 70 70 70 70 70 70 69 68 69 69 66 70 69 70 71 71 69 69 70 70 71 70 72 73 71 71 72 71 65 63 66 71 70 60
55 58 60 62 62 63 65 66 68 69 69 68 68 68 67 68 69 68 70 69 70 70 70 69 69 70 70 70 71 72 71 71 72 72 71 72 74 72 74 68 65 70 66
56 58 59 61 61 63 64 66 67 68 67 68 67 67 66 66 70 68 68 68 69 70 69 69 68 68 69 71 71 70 69 69 69 69 69 68 70 71 75 75 74 71 71
58 59 60 61 61 61 63 64 65 65 66 67 68 67 67 66 68 67 68 69 68 70 69 69 68 68 67 68 68 67 67 68 67 68 68 67 68 69 71 72 71 71 71
60 61 62 62 61 62 62 62 62 63 64 67 67 66 66 67 69 68 67 68 67 67 67 67 67 67 67 67 67 66 65 65 65 65 65 66 67 66 66 66 67 67 68
62 63 64 65 64 65 66 64 62 62 64 65 65 66 66 67 68 67 66 67 66 67 67 67 66 67 66 66 66 65 65 64 63 63 63 64 64 64 65 64 65 66 65
61 64 65 65 65 65 66 64 64 64 65 66 65 66 67 67 68 67 66 66 66 66 66 66 66 63 62 62 64 64 63 63 62 61 60 59 60 60 61 63 64 65 64
61 64 64 63 63 66 65 64 65 66 65 65 65 67 68 68 69 67 66 67 65 66 66 64 64 62 59 58 60 63 63 62 62 61 61 61 60 57 58 58 58 62 63
61 64 62 64 66 65 66 66 66 69 69 70 67 67 69 69 69 67 66 66 65 65 64 64 63 62 60 56 57 61 61 61 60 60 59 56 55 59 57 57 57 57 58
62 63 62 65 66 67 67 68 67 68 67 67 67 68 70 70 70 68 67 66 64 64 63 63 63 61 56 53 54 57 61 60 59 59 58 58 57 55 55 53 50 49 50
64 65 65 66 67 66 66 67 66 66 66 65 65 65 67 69 69 68 67 66 64 63 63 62 62 61 59 52 53 56 59 58 58 56 55 54 54 52 53 53 52 49 46
68 66 65 65 65 64 65 65 64 62 61 60 61 62 63 66 67 67 66 66 64 63 61 61 61 57 59 50 50 52 55 56 52 54 53 50 51 49 49 57 55 53 52
65 64 64 63 63 63 62 62 61 60 60 60 60 60 59 60 64 65 65 65 64 62 61 59 58 57 52 52 49 49 56 55 52 49 47 47 46 45 46 49 55 52 51
62 63 62 62 62 62 62 61 58 58 59 59 58 57 57 56 57 58 59 59 62 60 59 58 56 53 52 48 47 46 48 52 50 48 45 44 43 41 42 45 42 43 46
62 61 61 60 59 60 60 59 58 58 58 57 57 56 55 54 54 54 55 54 54 57 55 51 51 51 50 48 46 46 47 48 49 46 42 42 41 40 39 41 42 45 40
60 60 60 59 58 58 58 58 58 58 58 56 54 53 52 51 52 53 53 52 52 52 50 50 52 51 51 51 50 47 43 44 42 44 42 44 44 43 40 39 41 39 38
60 59 58 58 57 57 57 57 57 58 57 56 54 52 50 48 47 46 48 50 49 51 52 52 52 52 50 48 44 44 46 44 43 45 42 40 40 39 39 39 39 39 39
59 59 57 57 56 56 57 57 57 57 57 55 53 51 50 49 48 48 46 43 43 42 42 43 46 44 42 40 39 39 39 40 40 41 42 40 39 38 37 37 37 37 36

GFSMW_sfc_dewp_024.txt.gz
Dewpoint
62 63 63 65 73 74 75 75 74 76 75 70 69 71 74 75 74 70 70 67 65 73 75 74 74 74 73 72 73 72 69 68 70 69 69 70 71 70 69 72 71 72 72
63 65 68 72 73 73 74 75 75 73 74 70 71 71 74 75 75 75 73 72 72 74 75 74 73 73 72 71 72 71 70 70 71 69 69 65 64 65 69 70 71 71 72
63 66 67 71 70 72 73 74 74 73 72 72 72 72 74 73 74 73 74 73 72 73 74 73 74 73 73 72 71 71 70 68 69 71 68 65 62 64 69 70 72 71 73
63 67 69 68 68 70 72 74 72 72 72 72 72 73 72 71 73 73 74 73 73 72 72 73 73 73 73 72 72 72 71 70 69 70 68 68 69 65 63 69 70 72 73
62 64 66 68 68 69 69 72 73 73 73 73 74 75 73 73 73 72 73 74 74 72 70 72 72 73 73 73 72 71 71 71 69 69 68 68 68 69 66 64 67 71 71
61 64 67 68 68 67 67 69 72 73 74 74 74 75 73 73 71 71 71 68 71 73 72 72 72 73 72 72 72 72 72 70 69 70 69 68 66 66 66 66 66 65 67
59 64 66 67 67 67 66 68 71 72 72 73 73 72 73 73 73 72 69 71 68 69 72 72 72 71 73 72 72 72 71 70 69 70 70 68 67 69 68 68 66 64 67
60 62 63 65 66 65 66 68 70 72 73 73 73 74 74 72 70 72 70 70 70 71 72 72 72 71 71 72 73 72 73 73 72 70 71 70 69 71 69 68 66 65 65
59 61 62 64 66 65 67 68 72 73 73 72 73 73 74 73 72 73 72 69 72 69 70 70 71 71 71 72 72 71 71 72 71 71 71 71 70 70 70 70 69 67 63
56 60 61 63 64 65 67 68 70 72 71 71 72 71 72 72 70 70 71 70 71 71 70 69 69 70 71 71 72 71 70 69 69 70 70 69 69 70 71 70 69 70 67
55 60 60 61 61 62 64 67 68 71 70 70 71 71 71 71 71 70 70 70 71 70 69 69 69 68 69 70 70 69 70 69 69 69 69 69 70 70 70 71 70 68 68
56 59 59 61 61 63 64 65 69 68 68 71 70 71 71 70 70 70 70 70 69 69 68 68 69 69 68 68 67 67 67 66 66 66 67 67 69 69 69 70 69 69 69
60 60 62 63 63 65 67 69 65 66 67 70 70 70 70 70 70 69 70 69 68 68 67 67 68 67 66 66 66 66 64 64 64 64 64 64 65 65 65 66 66 67 67
63 64 65 66 67 67 67 65 63 64 67 68 68 69 70 71 69 70 70 69 69 67 67 67 67 67 66 65 65 65 64 63 62 62 62 62 63 64 65 65 65 65 65
63 66 66 69 68 68 68 67 65 66 68 68 67 70 69 70 70 69 69 68 68 65 67 66 65 65 63 60 64 63 63 63 61 61 60 60 60 61 62 63 64 64 63
63 66 67 67 67 67 68 69 68 68 69 68 66 71 70 71 70 69 68 68 66 65 67 66 64 62 59 58 59 63 63 62 62 60 61 61 59 58 59 59 59 61 63
64 66 66 65 67 67 70 69 71 71 70 68 70 70 70 70 69 69 67 67 66 65 66 65 64 62 59 55 57 58 63 62 62 62 61 58 56 59 58 57 56 56 59
64 66 64 66 68 67 70 71 69 70 68 69 68 68 69 69 70 69 68 67 65 63 63 64 63 60 55 55 53 55 62 60 59 58 60 59 57 55 56 51 48 46 48
67 66 66 69 69 69 69 69 68 69 67 65 65 64 64 66 70 67 66 66 65 65 64 64 63 61 57 52 51 56 61 59 57 55 54 57 56 52 53 54 52 50 46
67 68 69 68 68 67 68 68 66 63 62 61 61 62 62 62 68 67 66 66 65 63 62 61 60 57 56 50 49 52 61 58 54 56 54 50 49 49 49 60 58 56 56
66 67 66 66 65 65 66 64 62 60 60 60 60 59 59 59 62 64 65 65 63 63 61 60 59 56 52 52 48 48 55 58 55 51 50 50 46 45 45 49 53 52 53
64 64 63 63 65 65 64 61 59 60 60 59 57 56 56 56 57 58 58 60 62 60 59 57 54 51 50 48 47 46 48 53 52 50 49 48 42 41 42 46 42 43 46
64 62 62 61 61 63 62 59 59 59 58 57 56 55 54 54 54 55 55 55 55 54 53 52 52 50 51 51 46 44 46 49 51 45 43 42 40 40 42 41 42 45 47
61 61 60 59 58 59 59 59 59 59 57 55 54 53 51 51 52 53 53 53 53 52 51 51 51 51 51 51 48 47 44 44 43 45 45 45 46 44 45 43 48 48 46
61 61 61 59 58 59 59 59 58 58 56 55 54 52 51 50 49 47 49 51 50 51 52 52 52 52 51 48 44 44 48 50 47 48 48 43 41 42 49 48 48 49 49
61 61 60 59 58 59 57 58 60 59 58 56 53 52 51 50 50 49 47 44 44 43 42 44 47 45 43 41 40 39 39 40 41 46 46 46 47 46 46 47 46 46 45

GFSMW_sfc_dewp_030.txt.gz
Dewpoint
64 65 65 69 72 71 71 70 69 68 69 66 66 67 67 69 70 70 68 66 66 67 64 67 70 69 68 68 68 66 64 65 67 66 65 65 68 68 66 68 70 70 71
64 66 70 71 70 70 71 69 68 67 66 66 66 66 68 69 71 71 70 69 68 67 66 69 69 69 68 67 67 68 66 67 68 64 62 59 62 66 68 68 70 70 71
67 69 70 70 71 72 70 69 68 67 66 65 69 69 69 69 67 68 68 69 70 70 69 68 68 68 68 67 67 67 66 64 66 66 63 61 60 62 65 67 69 70 69
68 69 70 71 70 71 70 70 69 68 66 67 66 68 67 66 67 68 68 68 68 68 69 69 68 68 68 67 67 68 67 66 64 66 68 67 65 62 61 64 66 68 68
68 69 70 70 70 72 70 70 69 68 69 67 65 66 67 68 68 67 66 67 68 69 69 69 68 68 68 68 67 67 67 66 65 64 65 66 66 65 63 61 63 66 68
68 68 68 70 70 71 69 69 68 68 68 67 67 68 67 66 66 66 66 66 67 67 68 69 68 68 68 67 68 68 67 66 66 66 66 65 64 63 64 62 62 61 63
67 66 67 68 68 70 69 69 67 67 68 70 69 68 67 67 65 65 66 66 66 66 66 67 68 68 68 68 67 66 66 66 65 65 66 67 65 66 65 64 63 62 62
66 65 66 65 66 70 70 68 67 68 68 69 68 68 67 67 67 66 66 66 66 65 66 67 68 68 69 68 68 67 67 66 66 64 65 66 66 67 66 65 64 62 61
64 66 64 65 65 67 68 67 67 68 68 68 67 67 67 66 65 66 66 65 66 66 66 68 67 68 68 68 67 67 67 67 66 66 65 65 65 67 67 67 66 63 59
64 64 64 65 64 65 68 68 68 68 69 68 68 67 66 66 66 65 65 65 65 65 66 67 66 66 66 66 66 65 65 65 66 67 66 66 66 66 67 67 67 66 63
63 64 64 64 64 65 67 67 68 68 68 68 67 67 66 66 66 65 65 65 64 63 67 67 65 65 64 64 63 63 63 63 63 64 65 64 64 65 66 66 66 65 65
63 63 64 63 64 65 66 68 68 68 68 68 66 67 66 66 66 64 64 64 64 64 65 64 63 64 63 62 62 62 62 61 61 61 62 63 63 63 64 64 64 64 64
60 63 63 63 63 64 65 65 61 66 68 67 66 66 66 66 65 64 64 64 63 63 64 63 62 62 62 62 61 60 60 59 59 59 59 59 61 61 61 62 62 61 62
57 63 62 63 63 61 61 63 64 66 67 66 66 66 66 65 65 64 64 65 64 63 62 62 61 61 62 62 61 60 59 58 57 57 58 59 61 61 60 61 60 60 61
57 62 63 64 62 59 60 59 61 63 66 66 66 67 67 66 65 65 64 63 63 63 61 60 59 58 59 60 61 60 59 57 56 56 57 58 58 58 60 59 59 58 58
63 64 66 65 64 64 62 59 60 65 67 66 67 68 67 66 65 64 63 62 63 62 60 59 58 56 54 55 59 60 60 59 57 56 55 55 54 52 55 57 60 59 56
65 65 65 66 65 64 64 64 66 67 68 68 68 68 67 66 65 65 64 63 62 61 59 58 56 52 52 54 58 59 56 56 56 53 52 51 50 47 44 48 52 55 58
64 65 66 65 64 66 68 68 68 67 65 64 64 64 65 66 66 65 64 64 62 61 58 57 53 50 50 52 55 56 53 53 53 54 52 50 49 48 40 39 39 41 48
63 66 65 65 67 67 66 65 64 63 62 61 61 61 61 62 66 66 64 64 62 60 59 56 53 50 48 50 51 54 51 49 48 49 50 48 48 52 49 43 42 41 40
65 66 66 66 66 64 63 62 61 61 59 59 59 58 60 61 66 65 63 64 63 59 57 54 53 51 47 48 48 54 52 49 48 47 45 49 46 49 50 46 45 46 47
63 64 63 63 62 62 62 60 59 58 57 57 56 56 57 59 62 64 64 63 60 57 54 51 50 48 47 47 47 50 52 50 48 46 44 41 46 45 45 48 47 45 44
61 61 61 60 60 59 59 57 57 56 56 56 56 55 55 56 58 60 62 61 59 56 52 51 50 49 48 46 45 47 50 50 46 44 43 41 41 41 41 39 42 44 44
61 60 60 59 59 58 58 56 56 55 54 54 54 53 53 54 54 56 57 56 56 54 53 51 50 50 51 49 45 45 46 47 43 40 42 44 43 42 41 43 44 41 39
59 58 59 58 58 56 57 56 55 55 54 54 52 51 50 50 51 52 53 54 53 53 52 51 50 51 50 44 44 42 41 44 41 45 44 44 43 42 42 40 42 39 39
59 57 57 57 58 57 58 57 56 55 53 51 50 50 49 49 48 47 49 50 48 51 52 52 52 51 48 44 42 41 42 44 40 41 41 41 40 39 40 41 40 37 37
57 57 57 58 58 58 58 58 55 53 52 50 49 48 47 46 47 47 45 44 44 43 43 45 47 46 44 40 39 38 39 39 39 39 39 39 42 42 38 37 39 38 38

GFSMW_sfc_dewp_033.txt.gz
Dewpoint
64 65 66 69 71 71 70 71 69 68 68 67 66 67 67 68 69 69 68 67 66 66 66 65 68 68 68 68 67 65 64 63 65 64 63 64 66 68 67 67 69 69 71
64 66 70 70 70 70 69 68 67 67 66 66 66 66 67 69 70 70 70 68 68 66 65 66 68 68 68 67 67 67 66 64 66 63 62 61 61 64 67 67 68 68 70
63 69 69 70 70 70 69 68 67 66 65 65 69 68 68 68 67 67 68 68 69 69 68 68 67 67 67 66 66 66 66 64 67 65 62 59 59 62 64 66 67 68 69
66 69 69 69 70 70 69 67 67 66 64 67 67 67 66 65 66 67 67 67 68 68 69 68 68 67 67 66 66 67 66 64 63 66 66 64 64 61 60 63 64 67 68
67 69 69 69 71 70 69 68 67 66 67 67 65 66 66 67 67 66 66 66 67 68 68 68 68 67 67 67 67 66 66 65 64 64 63 64 65 66 62 60 62 64 66
68 68 70 70 71 70 69 68 67 66 67 66 67 67 66 66 65 65 66 66 66 66 66 68 68 67 67 67 66 67 66 66 65 64 64 64 63 64 62 61 62 62 64
62 59 58 68 69 69 68 68 66 66 66 68 69 67 67 65 65 65 65 64 64 64 65 66 67 67 67 67 66 66 66 65 65 65 64 65 64 65 64 63 63 62 63
56 60 62 67 69 69 68 67 66 66 68 68 68 67 66 66 66 65 64 64 64 64 66 67 67 67 67 67 66 66 66 65 64 64 64 65 65 66 65 64 63 62 62
60 59 65 66 69 69 68 66 67 67 68 67 67 66 66 65 65 64 64 64 64 65 67 67 65 66 66 66 66 65 65 65 65 65 64 64 64 67 67 66 65 63 60
59 65 65 65 67 68 68 67 68 68 68 67 67 66 65 65 64 64 64 63 62 66 65 64 64 64 63 63 63 63 63 63 65 65 65 65 65 65 66 66 66 65 63
64 65 65 65 65 67 67 67 68 68 68 67 67 65 65 65 64 64 63 62 62 64 63 63 63 62 62 62 62 61 61 61 61 62 62 62 63 64 65 66 66 65 64
64 65 65 64 65 66 67 67 68 68 69 68 67 66 66 65 64 63 63 62 62 63 62 62 62 62 61 61 61 60 60 59 59 59 60 61 62 62 62 63 63 64 65
64 64 65 63 64 65 66 67 65 64 67 68 66 66 66 65 64 63 63 63 63 62 62 61 61 61 60 60 59 58 57 57 57 58 59 60 61 61 61 60 60 60 62
62 64 64 63 64 64 66 64 61 66 66 67 66 65 65 64 64 63 64 63 62 62 60 60 60 60 60 60 59 58 56 56 56 57 58 59 58 58 59 59 59 61 61
57 60 63 64 63 62 62 62 60 65 66 66 66 66 65 65 64 64 63 62 62 61 59 58 58 58 58 59 59 58 56 55 55 55 55 55 58 60 61 58 57 57 60
60 62 63 64 64 62 60 61 60 63 65 66 66 67 65 65 65 64 62 62 61 59 59 57 56 54 53 56 60 59 57 56 55 53 50 51 51 53 57 59 60 58 56
60 63 56 65 65 65 64 60 60 65 67 67 67 67 66 65 64 64 63 62 60 59 58 55 53 51 52 55 57 58 56 54 52 51 48 46 45 45 46 52 54 55 57
60 62 58 66 66 66 66 66 65 65 65 65 65 66 66 65 64 64 63 63 61 59 57 54 52 50 50 53 54 55 54 53 52 51 50 47 45 43 41 40 42 44 48
61 64 65 65 67 66 65 64 64 63 62 61 61 61 63 64 65 64 63 63 61 59 57 54 51 49 48 50 52 52 50 49 48 49 49 48 49 50 49 43 41 41 42
64 63 65 66 65 64 65 65 64 63 60 59 59 61 60 62 64 65 64 63 61 58 55 52 51 50 47 47 50 51 49 47 46 46 44 48 48 51 48 46 46 47 46
63 63 63 62 62 61 62 62 60 59 59 57 58 59 59 60 64 64 63 60 58 54 51 49 48 47 45 45 47 51 50 49 47 45 43 41 46 45 48 48 46 45 46
61 61 60 59 59 58 59 59 56 56 57 56 56 57 57 57 60 63 61 59 56 53 51 50 51 50 48 46 46 48 50 49 46 44 42 39 42 41 40 40 43 44 44
60 61 59 57 57 59 58 56 55 55 56 55 54 55 55 55 56 59 59 57 55 54 52 51 51 50 51 49 45 45 46 47 42 39 42 45 41 40 40 44 42 42 40
59 59 59 58 57 57 57 55 56 56 57 56 55 52 51 51 53 54 55 55 54 53 52 51 51 51 47 44 46 46 42 44 43 45 41 42 42 42 41 42 40 42 37
58 58 58 57 57 57 56 56 57 55 54 54 51 50 50 50 49 47 50 51 50 52 52 52 51 50 46 44 42 42 42 40 40 41 41 41 42 42 42 41 40 37 36
57 57 57 57 57 58 57 55 54 53 52 49 48 49 49 49 49 47 45 44 44 43 45 46 47 47 44 41 39 38 38 38 39 38 36 39 41 37 35 36 39 38 37